Location: Albany
(35.0000°S, 118.0000°E)
Time: 23:52:41
(UTC-04:00)

Atlas Centaur 2 - Pass Details

Date: 27 August 2017
Orbit: 459 x 1313 km, 30.4° (Epoch: 25 September)

Event Time Altitude Azimuth Distance (km) Brightness Sun altitude
Exits shadow 16:16:56 21° 60° (ENE) 1,120 3.4 -28.5°
Drops below altitude 10° 16:18:21 10° 72° (ENE) 1,628 4.5 -28.2°
Sets 16:20:30 0° 79° (E) 2,484 5.8 -27.8°
